Flag for France Weather past 2 weeks in Taiohae, Marquesas Islands, France

Now
82 °F

Scattered clouds.


Feels Like: 87 °F
Forecast: 81 / 83 °F
Wind: 20 mph from East

Location: Atuona


UV Index: 7 (High)

Visibility: 31 mi


Pressure: 29.77 "Hg

Humidity: 72%

Dew point: 72 °F

Location of TaiohaeLocation

Historic Weather in Taiohae

°F

Taiohae temperature yesterday

Maximum temperature yesterday: 91 °F (at 10:30 AM)
Minimum temperature yesterday: 74 °F (at 3:30 AM)
Average temperature yesterday: 81 °F

Past Weeks' High & Low Weather Summary

 TemperatureHumidityPressure
High92 °F (Apr 21, 10:30 AM)92% (Apr 10, 4:30 AM)29.94 "Hg (Apr 10, 4:30 AM)
Low73 °F (Apr 9, 5:30 AM)53% (Apr 19, 12:30 PM)29.74 "Hg (Apr 8, 2:30 PM)
Average81 °F77%29.85 "Hg
* Reported Apr 8 2:30 PM — Apr 23 2:30 PM, Taiohae, Weather by CustomWeather, © 2014

Note: Actual official high and low records may vary slightly from our data, if they occured in-between our weather recording intervals... More about our weather records

Advertising

Historic Weather Conditions — Data for Previous 24 hours

 ConditionsComfort  
Time TempWeatherWind HumidityBarometerVisibility
2:30 PM
Apr 23
84 °FPassing clouds.16 mph70%29.77 "Hg31 mi
1:30 PM84 °FPassing clouds.18 mph69%29.78 "Hg31 mi
12:30 PM83 °FPassing clouds.22 mph72%29.80 "Hg31 mi
11:30 AM85 °FPassing clouds.16 mph70%29.83 "Hg31 mi
10:30 AM87 °FPassing clouds.17 mph65%29.85 "Hg31 mi
9:30 AM87 °FPassing clouds.16 mph67%29.87 "Hg28 mi
8:30 AM85 °FPassing clouds.7 mph67%29.88 "Hg25 mi
7:30 AM82 °FPassing clouds.2 mph73%29.88 "Hg22 mi
6:30 AM76 °FScattered clouds.2 mph88%29.86 "Hg22 mi
5:30 AM75 °FPassing clouds.3 mph87%29.84 "Hg19 mi
4:30 AM75 °FMild.2 mph86%29.83 "HgN/A
3:30 AM76 °FMild.2 mph85%29.81 "HgN/A
2:30 AM76 °FMild.No wind86%29.81 "HgN/A
1:30 AM76 °FMild.2 mph88%29.83 "HgN/A
12:30 AM77 °FWarm.2 mph86%29.85 "HgN/A
11:30 PM
Apr 22
78 °FWarm.2 mph85%29.87 "HgN/A
10:30 PM78 °FWarm.1 mph85%29.88 "HgN/A
8:30 PM79 °FWarm.2 mph80%29.88 "HgN/A
7:30 PM80 °FWarm.3 mph76%29.86 "HgN/A
6:30 PM81 °FWarm.5 mph74%29.85 "HgN/A
5:30 PM81 °FWarm.3 mph73%29.83 "HgN/A
4:30 PM82 °FPassing clouds.7 mph71%29.81 "Hg31 mi
Weather by CustomWeather, © 2014

See weather overview